{"data":{"norad_id":68650,"epoch":"2026-05-24T15:28:03.790848Z","epoch_age_seconds":105437,"freshness":"FRESH","line1":"1 68650U 26075Q   26144.64448832  .00000042  00000+0  32817-4 0  9991","line2":"2 68650  88.9897 323.4131 0011100  73.9826 286.2558 13.70625769  6593","mean_motion":13.70625769,"eccentricity":0.00111,"inclination_deg":88.9897,"raan_deg":323.4131,"arg_perigee_deg":73.9826,"mean_anomaly_deg":286.2558,"bstar":3.2817e-5,"rev_number":659,"period_min":105.06150056194,"perigee_km":989.13851586005,"apogee_km":1005.5120421194,"semimajor_km":7375.4622789897,"source":"CELESTRAK","updated_at":"2026-05-25T13:38:07.993814Z"}}